Accueil
METAR-TAF:

METAR-TAF

Aéroports :

Decatur Municipal Airport

Decatur, Texas, États-Unis

latitude: 33-15-16N, longitude: 097-34-50W, altitude: 319 m

Observation

Le bulletin a été fait il y a 12 minutes, à 10:15 UTC
Vent calme
Température 1°C
Humidité 80%
Pression 1027 hPa
Visibilité: 16.1 km
Ciel clair

METAR: KLUD 101015Z AUTO 00000KT 10SM CLR 01/M02 A3034 RMK AO2 T00051021

Heure: 04:27 (10:27 UTC)


TAF: absent

Observations et prévisions météorologiques de plus de 4000 aéroports (messages METAR et TAF).

Les stations disponibles sont représentées par des disques jaunes et rouges sur la carte.

Passer la souris dessus pour voir le nom de la station.

Cliquer dessus pour voir les observations et prévisions météorologiques.

Pour changer de carte: cliquez sur les boutons verts avec une croix noire pour zoomer, sur le bouton vert avec un tiret pour effectuer un zoom arrière, ou sur les flèches vertes pour les cartes adjacentes.


METAR-TAF: